This demonstration page uses our WeatherBlox Daily Observations layout. Learn more.

Left ArrowRight Arrow

Hourly Observations for April 24, 2021

Temp ( °F °C ) Dew Point ( °F °C ) Humidity (%) Winds ( mph kmh ) Pressure ( in mb ) Visibility ( mi km ) Precip ( " mm )
12:53 am 00:53 Clear 30 -1.1 24 -4.4 79 79 ENE 3 6 30.04 1017 10 16 0.00 0.00
1:53 am 01:53 Clear 30 -1.1 24 -4.4 79 79 NE 3 6 30.02 1017 10 16 0.00 0.00
2:53 am 02:53 Mostly Cloudy 30 -1.1 24 -4.4 79 79 E 6 9 30.01 1016 10 16 0.00 0.00
3:53 am 03:53 Mostly Cloudy 28 -2.2 24 -4.4 85 85 ENE 8 13 30.01 1016 10 16 0.00 0.00
4:53 am 04:53 Mostly Clear 27 -2.8 23 -5 85 85 ENE 8 13 30.00 1016 10 16 0.00 0.00
5:53 am 05:53 Cloudy 28 -2.2 23 -5 81 81 E 9 15 30.00 1016 10 16 0.00 0.00
6:53 am 06:53 Cloudy 28 -2.2 23 -5 81 81 NE 9 15 29.98 1015 10 16 0.00 0.00
7:53 am 07:53 Cloudy 31 -0.6 26 -3.3 82 82 E 12 19 29.98 1015 10 16 0.00 0.00
8:53 am 08:53 Cloudy 34 1.1 27 -2.8 76 76 E 13 20 29.97 1015 10 16 0.00 0.00
9:53 am 09:53 Cloudy 37 2.8 27 -2.8 67 67 E 16 26 29.96 1015 10 16 0.00 0.00
10:53 am 10:53 Cloudy 38 3.3 28 -2.2 68 68 E 14 22 29.95 1014 10 16 0.00 0.00
11:53 am 11:53 Cloudy 41 5 30 -1.1 65 65 E 15 24 29.93 1014 10 16 0.00 0.00
12:53 pm 12:53 Cloudy 40 4.4 31 -0.6 70 70 E 14 22 29.92 1013 10 16 0.00 0.00
1:00 pm 13:00 Cloudy with Light Rain 40 4.4 32 0 73 73 E 10 17 29.90 1013 10 16 0.00 0.00
1:45 pm 13:45 Cloudy with Light Rain 40 4.4 35 1.7 83 83 E 14 22 29.89 1012 8 13 0.02 0.51
1:53 pm 13:53 Cloudy 40 4.4 35 1.7 83 83 ENE 13 20 29.90 1013 10 16 0.02 0.51
2:53 pm 14:53 Cloudy 42 5.6 34 1.1 73 73 ENE 13 20 29.88 1012 10 16 0.00 0.00
3:53 pm 15:53 Cloudy 42 5.6 34 1.1 73 73 E 13 20 29.86 1011 10 16 0.00 0.00
4:53 pm 16:53 Cloudy 43 6.1 35 1.7 74 74 E 12 19 29.85 1011 10 16 0.00 0.00
5:53 pm 17:53 Cloudy 43 6.1 34 1.1 71 71 ENE 13 20 29.84 1011 10 16 0.00 0.00
6:24 pm 18:24 Cloudy 42 5.6 35 1.7 76 76 E 15 24 29.82 1010 10 16 0.00 0.00
6:53 pm 18:53 Cloudy 42 5.6 34 1.1 73 73 ENE 14 22 29.84 1011 10 16 0.00 0.00
7:53 pm 19:53 Cloudy 41 5 34 1.1 76 76 E 13 20 29.83 1010 10 16 0.00 0.00
8:53 pm 20:53 Cloudy 40 4.4 35 1.7 83 83 E 13 20 29.83 1010 10 16 0.00 0.00
9:48 pm 21:48 Cloudy 37 3 36 2 93 93 ENE 14 22 29.85 1011 9 14 0.00 0.00
9:53 pm 21:53 Cloudy 38 3.3 35 1.7 89 89 ENE 14 22 29.83 1010 10 16 0.00 0.00
10:53 pm 22:53 Cloudy 38 3.3 35 1.7 89 89 E 13 20 29.83 1010 10 16 0.00 0.00
11:10 pm 23:10 Cloudy 38 3.3 35 1.7 89 89 E 13 20 29.84 1010 10 16 0.00 0.00
11:53 pm 23:53 Cloudy 37 2.8 35 1.7 93 93 E 13 20 29.81 1010 10 16 0.00 0.00

Powered by AerisWeather